Location: Roland
(31.1349°N, 85.4372°W)
Time: 03:33:09
(UTC+00:00)

Vanguard 2 Rocket - Pass Details

Date: 06 December 2021
Orbit: 554 x 3324 km, 32.9° (Epoch: 16 January)

Event Time Altitude Azimuth Distance (km) Brightness Sun altitude
Rises 03:22:04 0° 284° (WNW) 4,227 10.8 -59.7°
Reaches altitude 10° 03:24:24 10° 282° (WNW) 3,529 10.2 -60.2°
Enters shadow 03:24:58 13° 281° (WNW) 3,374 10.1 -60.3°
